TimeCST,TemperatureF,Dew PointF,Humidity,Sea Level PressureIn,VisibilityMPH,Wind Direction,Wind SpeedMPH,Gust SpeedMPH,PrecipitationIn,Events,Conditions,WindDirDegrees,DateUTC
12:15 AM,41.0,28.4,61,30.20,10.0,WSW,5.8,-,N/A,,Clear,250,2013-01-20 06:15:00
12:35 AM,39.2,28.4,65,30.20,10.0,SW,4.6,-,N/A,,Clear,230,2013-01-20 06:35:00
12:55 AM,39.2,28.4,65,30.19,10.0,SSW,9.2,-,N/A,,Clear,210,2013-01-20 06:55:00
1:15 AM,39.2,28.4,65,30.20,10.0,SW,5.8,-,N/A,,Clear,220,2013-01-20 07:15:00
1:35 AM,39.2,28.4,65,30.20,10.0,SW,4.6,-,N/A,,Clear,220,2013-01-20 07:35:00
1:55 AM,39.2,28.4,65,30.20,10.0,SW,4.6,-,N/A,,Clear,220,2013-01-20 07:55:00
2:15 AM,39.2,28.4,65,30.20,10.0,SSW,4.6,-,N/A,,Clear,210,2013-01-20 08:15:00
2:35 AM,37.4,30.2,75,30.20,10.0,SSW,5.8,-,N/A,,Clear,210,2013-01-20 08:35:00
2:55 AM,37.4,30.2,75,30.20,10.0,SSW,4.6,-,N/A,,Clear,210,2013-01-20 08:55:00
3:15 AM,37.4,28.4,70,30.19,10.0,SSW,3.5,-,N/A,,Clear,210,2013-01-20 09:15:00
3:35 AM,37.4,30.2,75,30.19,10.0,SSW,3.5,-,N/A,,Clear,200,2013-01-20 09:35:00
3:55 AM,39.2,30.2,70,30.18,10.0,Calm,Calm,-,N/A,,Clear,0,2013-01-20 09:55:00
4:15 AM,37.4,30.2,75,30.19,10.0,SSW,3.5,-,N/A,,Clear,200,2013-01-20 10:15:00
4:35 AM,33.8,28.4,81,30.18,10.0,South,4.6,-,N/A,,Clear,190,2013-01-20 10:35:00
4:55 AM,30.2,26.6,86,30.18,10.0,Calm,Calm,-,N/A,,Clear,0,2013-01-20 10:55:00
5:15 AM,32.0,28.4,87,30.19,10.0,Calm,Calm,-,N/A,,Clear,0,2013-01-20 11:15:00
5:35 AM,32.0,28.4,87,30.19,10.0,Calm,Calm,-,N/A,,Clear,0,2013-01-20 11:35:00
5:55 AM,32.0,28.4,87,30.20,10.0,Calm,Calm,-,N/A,,Clear,0,2013-01-20 11:55:00
6:15 AM,30.2,26.6,86,30.20,10.0,Calm,Calm,-,N/A,,Clear,0,2013-01-20 12:15:00
6:35 AM,30.2,26.6,86,30.20,10.0,Calm,Calm,-,N/A,,Clear,0,2013-01-20 12:35:00
6:55 AM,30.2,26.6,86,30.21,10.0,Calm,Calm,-,N/A,,Clear,0,2013-01-20 12:55:00
7:15 AM,28.4,26.6,93,30.21,10.0,Calm,Calm,-,N/A,,Clear,0,2013-01-20 13:15:00
7:35 AM,30.2,28.4,93,30.21,10.0,Calm,Calm,-,N/A,,Clear,0,2013-01-20 13:35:00
7:55 AM,33.8,30.2,87,30.22,10.0,Calm,Calm,-,N/A,,Clear,0,2013-01-20 13:55:00
8:15 AM,37.4,32.0,81,30.22,10.0,Calm,Calm,-,N/A,,Clear,0,2013-01-20 14:15:00
8:35 AM,39.2,33.8,81,30.22,10.0,Calm,Calm,-,N/A,,Clear,0,2013-01-20 14:35:00
8:55 AM,44.6,33.8,66,30.23,10.0,Calm,Calm,-,N/A,,Clear,0,2013-01-20 14:55:00
9:15 AM,44.6,33.8,66,30.23,10.0,NNW,9.2,-,N/A,,Clear,330,2013-01-20 15:15:00
9:35 AM,44.6,33.8,66,30.24,10.0,NNW,8.1,-,N/A,,Clear,340,2013-01-20 15:35:00
9:55 AM,46.4,33.8,62,30.25,10.0,North,8.1,-,N/A,,Clear,350,2013-01-20 15:55:00
10:15 AM,46.4,33.8,62,30.25,10.0,NNE,9.2,-,N/A,,Clear,20,2013-01-20 16:15:00
10:35 AM,48.2,33.8,58,30.24,10.0,North,3.5,-,N/A,,Clear,360,2013-01-20 16:35:00
10:55 AM,48.2,33.8,58,30.24,10.0,Variable,6.9,-,N/A,,Clear,0,2013-01-20 16:55:00
11:15 AM,48.2,33.8,58,30.23,10.0,NNW,9.2,-,N/A,,Clear,330,2013-01-20 17:15:00
11:35 AM,50.0,30.2,47,30.21,10.0,NNW,9.2,-,N/A,,Clear,330,2013-01-20 17:35:00
11:55 AM,50.0,28.4,43,30.20,10.0,NW,4.6,-,N/A,,Clear,320,2013-01-20 17:55:00
12:15 PM,51.8,28.4,41,30.19,10.0,North,5.8,-,N/A,,Clear,10,2013-01-20 18:15:00
12:55 PM,51.8,26.6,38,30.17,10.0,Calm,Calm,-,N/A,,Clear,0,2013-01-20 18:55:00
1:15 PM,53.6,28.4,38,30.16,10.0,WNW,5.8,-,N/A,,Clear,290,2013-01-20 19:15:00
1:35 PM,53.6,28.4,38,30.16,10.0,WNW,8.1,-,N/A,,Clear,290,2013-01-20 19:35:00
1:55 PM,53.6,28.4,38,30.16,10.0,NNW,5.8,-,N/A,,Clear,340,2013-01-20 19:55:00
2:15 PM,53.6,28.4,38,30.16,10.0,WNW,4.6,-,N/A,,Clear,290,2013-01-20 20:15:00
2:35 PM,53.6,28.4,38,30.16,10.0,NNE,3.5,-,N/A,,Clear,20,2013-01-20 20:35:00
2:55 PM,53.6,28.4,38,30.16,10.0,Variable,4.6,-,N/A,,Clear,0,2013-01-20 20:55:00
3:15 PM,53.6,28.4,38,30.16,10.0,NW,9.2,-,N/A,,Clear,310,2013-01-20 21:15:00
3:35 PM,53.6,26.6,35,30.16,10.0,NNW,5.8,-,N/A,,Clear,330,2013-01-20 21:35:00
3:55 PM,51.8,24.8,35,30.17,10.0,NW,3.5,-,N/A,,Clear,320,2013-01-20 21:55:00
4:15 PM,51.8,26.6,38,30.17,10.0,NNW,3.5,-,N/A,,Clear,330,2013-01-20 22:15:00
4:35 PM,48.2,28.4,46,30.17,10.0,NW,5.8,-,N/A,,Clear,320,2013-01-20 22:35:00
4:55 PM,48.2,26.6,43,30.17,10.0,NNW,4.6,-,N/A,,Clear,330,2013-01-20 22:55:00
5:15 PM,46.4,28.4,50,30.17,10.0,North,3.5,-,N/A,,Clear,350,2013-01-20 23:15:00
5:35 PM,44.6,28.4,53,30.17,10.0,North,3.5,-,N/A,,Clear,350,2013-01-20 23:35:00
5:55 PM,44.6,28.4,53,30.17,10.0,Calm,Calm,-,N/A,,Clear,0,2013-01-20 23:55:00
6:15 PM,39.2,28.4,65,30.16,10.0,Calm,Calm,-,N/A,,Clear,0,2013-01-21 00:15:00
6:35 PM,39.2,28.4,65,30.16,10.0,Calm,Calm,-,N/A,,Clear,0,2013-01-21 00:35:00
6:55 PM,37.4,28.4,70,30.16,10.0,Calm,Calm,-,N/A,,Clear,0,2013-01-21 00:55:00
7:15 PM,35.6,28.4,75,30.16,10.0,Calm,Calm,-,N/A,,Clear,0,2013-01-21 01:15:00
7:35 PM,33.8,26.6,75,30.16,10.0,Calm,Calm,-,N/A,,Clear,0,2013-01-21 01:35:00
7:55 PM,35.6,28.4,75,30.15,10.0,Calm,Calm,-,N/A,,Clear,0,2013-01-21 01:55:00
8:15 PM,33.8,26.6,75,30.15,10.0,Calm,Calm,-,N/A,,Clear,0,2013-01-21 02:15:00
8:35 PM,33.8,26.6,75,30.15,10.0,Calm,Calm,-,N/A,,Clear,0,2013-01-21 02:35:00
8:55 PM,33.8,26.6,75,30.15,10.0,Calm,Calm,-,N/A,,Clear,0,2013-01-21 02:55:00
9:15 PM,32.0,26.6,80,30.15,10.0,Calm,Calm,-,N/A,,Clear,0,2013-01-21 03:15:00
9:35 PM,33.8,26.6,75,30.15,10.0,Calm,Calm,-,N/A,,Clear,0,2013-01-21 03:35:00
9:55 PM,30.2,26.6,86,30.16,10.0,North,3.5,-,N/A,,Clear,360,2013-01-21 03:55:00
10:15 PM,30.2,26.6,86,30.16,10.0,Calm,Calm,-,N/A,,Clear,0,2013-01-21 04:15:00
10:35 PM,32.0,26.6,80,30.15,10.0,Calm,Calm,-,N/A,,Clear,0,2013-01-21 04:35:00
10:55 PM,32.0,24.8,75,30.14,10.0,NNE,3.5,-,N/A,,Clear,20,2013-01-21 04:55:00
11:15 PM,28.4,24.8,86,30.14,10.0,Calm,Calm,-,N/A,,Clear,0,2013-01-21 05:15:00
11:35 PM,26.6,23.0,86,30.15,10.0,Calm,Calm,-,N/A,,Clear,0,2013-01-21 05:35:00
11:55 PM,26.6,21.2,80,30.15,10.0,Calm,Calm,-,N/A,,Clear,0,2013-01-21 05:55:00